Location: Howard City Library
(37.4684°N, 96.2639°W)
Time: 20:43:26
(UTC+00:00)

SKYMED 2 - Pass Details

Date: 18 February 2020
Orbit: 621 x 623 km, 97.9° (Epoch: 03 April)

Event Time Altitude Azimuth Distance (km) Brightness Sun altitude
Rises 00:39:23 0° 9° (N) 2,911 6.8 -7.3°
Reaches altitude 10° 00:41:35 10° 7° (N) 2,000 6.0 -7.7°
Maximum altitude 00:45:54 68° 285° (WNW) 674 4.0 -8.5°
Drops below altitude 10° 00:50:11 10° 202° (SSW) 1,984 6.6 -9.4°
Sets 00:52:22 0° 200° (SSW) 2,886 7.4 -9.8°
